Lid_Strength_Index
1 1 1 1 1 1 1 1 2 2 3 3 4 4 5 5 5 5 4 2 4 5 4 3 3 4 4 4 6 5 5 5 6 8 8 7 8 7 7 7 8 9 10 10 9 11 12 5 6 9 6 4 5 4
1 1 1 0 0 1 1 1 1 2 2 3 3 4 4 4 4 5 5 3 3 5 5 2 2 2 2 2 4 3 5 5 4 6 6 6 7 6 7 10 5 9 7 9 8 9 6 4 5 3 3 4 4 4
1 1 1 1 0 0 0 0 1 1 2 2 3 3 3 3 3 4 4 3 3 4 4 5 5 3 2 2 0 5 4 3 4 3 6 6 8 6 9 8 7 6 5 7 7 6 5 4 4 3 3 4 3 3
1 1 1 1 1 0 0 0 0 0 1 2 2 2 3 3 3 3 4 2 3 3 6 4 2 3 2 1 1 1 2 2 2 3 5 6 7 4 7 6 7 6 6 7 7 6 5 4 3 3 3 3 3 3
1 2 2 1 1 1 0 0 0 0 1 1 2 2 2 2 3 3 3 2 1 3 7 5 2 2 1 1 2 1 2 3 4 5 6 7 5 5 5 5 6 5 6 7 8 5 5 5 3 3 3 3 3 3
1 1 1 1 0 0 0 0 0 0 0 1 1 1 1 2 3 3 5 2 1 1 4 6 2 2 1 1 2 2 2 3 4 5 6 5 3 6 8 8 5 4 3 3 5 3 3 3 2 2 3 3 3 3
1 1 1 1 -0 -0 -0 -0 -0 -0 0 1 1 1 2 2 2 5 5 2 2 0 4 6 5 2 2 2 2 2 2 3 4 6 6 5 5 5 7 8 5 4 3 3 3 3 4 3 4 2 3 2 2 2
1 1 1 1 -0 -0 -0 -0 -0 -0 0 1 1 1 1 1 2 3 2 2 1 2 2 7 6 5 2 4 5 2 4 4 4 5 5 6 5 5 8 5 4 4 3 3 3 3 3 2 2 3 2 2 3 3
1 1 1 -0 -1 -1 -1 -0 -0 -0 0 0 1 1 1 2 4 2 -1 0 -0 2 6 5 7 9 3 4 4 4 4 8 4 7 6 6 7 9 6 5 5 4 5 4 4 3 3 4 4 3 3 3 4 5
1 0 -0 -0 -0 -0 -0 0 0 0 0 0 0 2 4 2 -1 -1 1 4 4 4 4 7 4 6 4 5 6 6 5 7 9 6 4 7 7 4 5 4 3 3 3 3 5 5 5 5 5 4 3 3 3 3
0 0 -0 -0 -0 -0 0 0 0 1 1 1 3 4 0 -2 1 3 6 7 7 8 5 5 5 6 2 7 7 5 7 7 10 7 8 9 9 6 4 4 3 3 3 3 3 3 3 4 4 3 3 2 2 2
1 0 0 -0 -0 -0 -0 0 0 1 1 1 1 -0 0 3 5 7 7 6 7 8 5 6 5 4 5 3 6 6 8 7 11 6 8 9 9 5 5 4 3 3 3 3 3 3 3 3 2 2 3 2 2 2
1 0 0 0 0 0 0 0 1 0 0 -0 2 5 5 6 11 10 11 9 8 5 5 5 6 4 4 4 5 7 9 9 5 8 9 10 7 5 4 4 4 3 3 3 2 2 2 2 2 3 3 2 2 2
0 0 0 0 0 0 0 0 0 0 1 3 8 12 9 9 8 7 6 6 4 4 5 5 6 6 4 6 7 10 7 7 10 12 12 9 6 5 4 3 4 3 3 3 3 3 3 3 3 2 2 2 2 3
0 0 0 0 0 0 0 0 0 0 3 8 7 11 8 5 5 4 4 5 4 3 3 6 6 6 7 8 6 7 10 11 10 12 9 7 5 5 5 3 3 3 3 3 3 3 3 2 3 3 2 2 2 2
0 1 0 0 0 1 1 0 0 0 3 5 6 8 6 7 7 6 5 4 4 4 4 4 7 9 9 8 10 11 12 14 11 8 6 5 5 4 3 3 3 3 3 3 2 2 2 2 2 2 2 2 2 2
1 0 0 0 1 1 1 1 2 5 5 7 7 5 6 6 7 5 4 3 2 4 8 7 10 10 7 10 12 10 12 10 8 7 5 4 4 3 3 3 3 2 2 2 2 2 2 2 2 2 3 2 2 2
1 1 1 1 1 2 2 3 4 6 8 8 9 7 6 5 6 5 5 4 4 5 5 8 7 11 12 12 11 9 7 6 5 6 5 3 3 3 3 2 2 2 2 2 2 2 2 2 3 3 3 2 1 2
2 2 2 2 2 2 4 4 5 10 9 8 6 5 5 4 3 3 3 4 3 4 6 7 8 10 10 8 8 6 5 5 6 4 4 3 2 2 2 2 1 1 2 1 2 2 2 2 2 2 2 2 2 2
2 2 2 2 2 5 8 7 5 8 9 7 5 6 5 5 4 4 5 5 5 6 7 7 8 7 7 5 4 4 4 3 4 5 4 3 2 2 2 2 2 1 2 1 1 4 2 2 2 1 1 2 2 2
3 2 3 2 3 4 7 8 8 6 6 7 5 6 6 5 5 6 6 4 5 7 8 6 6 4 3 3 3 2 3 3 4 4 4 4 2 2 2 2 2 2 3 3 3 3 3 2 1 2 2 3 2 2
2 2 3 4 5 5 6 3 5 4 6 6 6 6 7 8 7 6 4 6 7 6 5 5 4 3 3 3 3 2 2 1 1 2 3 3 3 3 3 2 3 3 3 3 2 3 3 2 2 2 2 2 3 2
2 3 3 4 5 7 7 3 7 6 9 8 6 7 8 7 5 2 6 5 5 3 3 3 2 2 2 2 1 1 1 2 2 2 2 3 2 2 3 2 2 3 3 3 2 3 3 5 3 3 2 2 3 3
4 2 4 5 5 8 4 6 4 5 5 6 7 9 8 7 4 6 9 6 4 3 3 3 3 3 2 2 3 2 2 2 3 2 2 3 3 3 2 2 2 2 2 2 3 3 3 3 5 4 3 3 4 4
6 7 6 10 4 6 7 7 7 6 8 7 8 8 7 5 8 9 9 6 4 3 3 2 2 2 3 3 3 2 1 2 3 3 2 1 1 3 3 3 2 3 3 4 4 4 4 4 4 5 5 5 4 5
10 5 9 6 6 7 7 8 8 8 7 8 8 6 5 6 9 10 7 5 4 3 3 3 3 3 3 3 4 4 3 2 1 3 2 1 2 3 3 3 4 4 3 3 4 4 4 4 4 5 5 5 7 5
9 7 4 2 3 4 5 5 5 6 8 8 7 7 7 12 10 6 3 2 3 2 1 2 2 3 4 4 3 3 2 2 2 2 1 1 2 2 3 3 4 3 2 3 3 4 4 4 4 5 4 4 4 5
5 5 7 5 5 4 6 6 7 8 6 4 5 8 9 9 9 4 3 1 1 1 2 2 2 2 3 3 3 3 2 2 2 1 1 2 2 2 2 2 2 7 3 3 3 3 3 3 4 4 5 4 4 4
5 3 4 6 5 5 6 6 6 4 3 5 7 7 6 3 2 3 2 2 1 2 3 3 3 2 1 1 2 2 2 2 3 4 4 3 3 3 2 2 1 1 1 2 9 6 4 4 4 4 4 4 3 3
5 3 5 5 6 7 5 3 4 3 2 3 3 3 3 3 2 1 1 2 3 3 2 2 1 2 2 2 2 2 2 2 2 3 4 4 3 2 2 2 2 1 1 2 2 3 8 5 4 4 5 4 4 5
3 4 5 5 5 4 3 2 2 2 3 3 3 4 4 4 2 1 1 1 1 1 2 2 2 2 2 2 2 2 3 2 2 2 2 2 1 1 1 1 1 1 1 2 2 2 3 3 4 4 4 4 4 5
4 4 5 6 5 3 2 3 4 4 4 4 4 3 3 3 4 2 1 2 2 2 4 3 2 2 1 1 1 1 8 1 1 2 2 2 2 2 1 1 0 1 2 2 2 3 3 4 4 4 4 4 5 5
4 4 4 4 4 5 4 4 5 5 5 5 4 3 3 4 5 2 0 -0 1 1 1 1 0 0 0 1 1 1 6 0 4 8 7 8 9 7 4 1 1 2 2 3 3 3 4 4 4 4 5 5 5 5